This is the latest recevied weather packets stored in our database for station/object DM4SB-13. If no packets are shown the sender has not sent any weather packets the latest 10 day(s).
| Time | Temp. | Humidity | Pressure | Rain* | Wind** | Luminosity | Snow |
|---|---|---|---|---|---|---|---|
| 1777558217 | 36.67° C | 14% | 1025.7 hPa | - | - | - | - |
| 1777557617 | 35° C | 15% | 1025.9 hPa | - | - | - | - |
| 1777554618 | 14.44° C | 29% | 1026.4 hPa | - | - | - | - |
| 1777553418 | 13.89° C | 30% | 1026.5 hPa | - | - | - | - |
| 1777551617 | 13.33° C | 31% | 1026.8 hPa | - | - | - | - |
| 1777551018 | 12.78° C | 31% | 1027.1 hPa | - | - | - | - |
| 1777550418 | 12.78° C | 31% | 1027.4 hPa | - | - | - | - |
| 1777548018 | 12.22° C | 30% | 1027.7 hPa | - | - | - | - |
| 1777547418 | 12.22° C | 31% | 1027.8 hPa | - | - | - | - |
| 1777546818 | 12.22° C | 31% | 1028.3 hPa | - | - | - | - |
| 1777546218 | 11.67° C | 31% | 1028.3 hPa | - | - | - | - |
| 1777545618 | 11.67° C | 31% | 1028.6 hPa | - | - | - | - |
| 1777545018 | 11.67° C | 30% | 1028.5 hPa | - | - | - | - |
| 1777544418 | 11.67° C | 31% | 1028.5 hPa | - | - | - | - |
| 1777543818 | 11.67° C | 31% | 1028.8 hPa | - | - | - | - |
| 1777543218 | 11.11° C | 31% | 1028.9 hPa | - | - | - | - |
| 1777542617 | 11.11° C | 31% | 1028.9 hPa | - | - | - | - |
| 1777542018 | 11.11° C | 32% | 1028.9 hPa | - | - | - | - |
| 1777541417 | 11.11° C | 32% | 1028.9 hPa | - | - | - | - |
| 1777540818 | 10.56° C | 32% | 1029 hPa | - | - | - | - |
| 1777540218 | 10.56° C | 32% | 1029.2 hPa | - | - | - | - |
| 1777539618 | 10.56° C | 33% | 1029.5 hPa | - | - | - | - |
| 1777539018 | 10.56° C | 33% | 1029.6 hPa | - | - | - | - |
| 1777538417 | 10° C | 32% | 1029.5 hPa | - | - | - | - |
| 1777537217 | 10° C | 32% | 1029.9 hPa | - | - | - | - |
* Rain since midnight (hover to see other rain measurements)
** Current wind speed in m/s (hover to see current wind gust speed)